MST,Max TemperatureF,Mean TemperatureF,Min TemperatureF,Max Dew PointF,MeanDew PointF,Min DewpointF,Max Humidity, Mean Humidity, Min Humidity, Max Sea Level PressureIn, Mean Sea Level PressureIn, Min Sea Level PressureIn, Max VisibilityMiles, Mean VisibilityMiles, Min VisibilityMiles, Max Wind SpeedMPH, Mean Wind SpeedMPH, Max Gust SpeedMPH,PrecipitationIn, CloudCover, Events, WindDirDegrees
2013-9-1,100,88,76,65,61,55,69,47,24,29.87,29.81,29.73,10,10,10,16,6,21,0.00,0,,228
2013-9-2,99,88,76,63,58,50,60,40,20,29.92,29.81,29.72,10,10,10,28,7,36,T,1,,168
2013-9-3,104,91,77,66,60,53,64,43,21,29.97,29.86,29.77,10,10,10,29,7,38,0.01,2,Rain-Thunderstorm,139
2013-9-4,103,87,71,62,53,44,73,45,16,30.04,29.85,29.77,10,10,10,22,6,29,0.00,0,,142
2013-9-5,104,89,74,56,49,42,50,32,13,29.87,29.82,29.76,10,10,10,24,9,31,0.00,0,,140
2013-9-6,100,88,76,61,54,48,51,34,17,29.94,29.85,29.76,10,10,10,20,8,25,T,1,Thunderstorm,152
2013-9-7,88,81,73,66,62,60,79,60,40,29.93,29.88,29.80,10,10,10,18,8,24,0.02,4,,127
2013-9-8,84,78,72,68,65,62,79,65,51,29.84,29.79,29.75,10,10,10,17,8,20,0.07,5,Rain,128
2013-9-9,86,77,67,69,66,62,84,66,48,29.93,29.77,29.68,10,9,1,18,5,21,0.50,6,Rain-Thunderstorm,131
2013-9-10,88,78,67,64,61,54,87,61,34,29.92,29.82,29.77,10,10,3,15,6,21,0.03,2,Rain,213
2013-9-11,91,79,67,64,57,51,81,54,27,29.94,29.87,29.81,10,10,10,16,7,22,0.00,0,,295
2013-9-12,96,83,69,62,56,48,70,47,23,29.90,29.78,29.68,10,10,10,21,6,27,0.00,2,,78
2013-9-13,97,87,76,64,58,48,60,40,20,29.73,29.66,29.56,10,10,10,21,9,24,0.00,1,,116
2013-9-14,99,89,78,62,56,46,58,38,17,29.68,29.62,29.56,10,10,10,23,9,29,0.00,0,,146
2013-9-15,100,86,72,57,53,46,57,37,17,29.73,29.68,29.64,10,10,10,25,8,30,0.00,1,,124
2013-9-16,101,91,80,58,55,46,45,31,17,29.78,29.72,29.65,10,10,10,24,11,29,0.00,0,,112
2013-9-17,102,92,81,58,54,43,43,30,17,29.75,29.67,29.58,10,10,10,23,10,29,0.00,1,,121
2013-9-18,100,88,76,47,42,32,36,23,10,29.71,29.65,29.58,10,10,10,15,6,19,0.00,0,,205
2013-9-19,99,86,72,51,44,35,49,32,14,29.74,29.68,29.62,10,10,10,14,6,18,0.00,0,,226
2013-9-20,101,86,70,56,45,34,42,29,15,29.79,29.73,29.67,10,10,10,26,8,30,0.00,1,,150
2013-9-21,97,86,74,57,53,48,53,37,20,29.81,29.71,29.61,10,10,9,17,7,22,0.00,2,,143
2013-9-22,94,82,70,62,50,33,52,35,18,29.72,29.63,29.56,10,10,10,25,11,33,0.00,1,,222
2013-9-23,92,77,62,40,33,25,39,25,10,29.86,29.80,29.73,10,10,10,13,5,16,0.00,0,,197
2013-9-24,98,81,64,41,32,23,37,23,8,29.92,29.83,29.74,10,10,10,14,7,19,0.00,0,,159
2013-9-25,96,82,67,29,24,18,22,15,7,29.78,29.70,29.62,10,10,10,22,10,28,0.00,0,,175
2013-9-26,94,79,63,56,36,19,46,29,12,29.77,29.66,29.59,10,10,10,26,12,40,0.00,2,,206
2013-9-27,80,72,64,59,41,19,61,38,14,29.92,29.80,29.69,10,10,10,16,8,22,0.00,3,,302
2013-9-28,88,73,57,39,31,24,30,23,15,30.09,29.95,29.90,10,10,10,14,6,18,0.00,0,,131
2013-9-29,91,77,62,41,35,30,43,28,13,30.03,29.96,29.89,10,10,10,12,6,16,0.00,0,,192
2013-9-30,92,76,60,36,30,20,39,24,8,29.95,29.88,29.80,10,10,10,13,6,17,0.00,0,,192